Overview Statistics Trail Chart Weather Telemetry Raw packets
 

This is the latest recevied weather packets stored in our database for station/object VE8SKI. If no packets are shown the sender has not sent any weather packets the latest 10 day(s).

<< 71 72 73 74 75 76 77 >>
Time Temp. Humidity Pressure Rain* Wind** Luminosity Snow
1777598464 7.78° C 58% 1008.4 hPa 0 mm 1.79 m/s, 135° - -
1777598164 8.33° C 58% 1008.5 hPa 0 mm 0.89 m/s, 224° - -
1777597865 8.33° C 58% 1008.5 hPa 0 mm 1.34 m/s, 172° - -
1777597265 8.33° C 58% 1008.6 hPa 0 mm 1.79 m/s, 129° - -
1777596966 8.33° C 57% 1008.6 hPa 0 mm 1.79 m/s, 193° - -
1777596664 8.33° C 56% 1008.6 hPa 0 mm 2.24 m/s, 177° - -
1777596364 8.89° C 56% 1008.9 hPa 0 mm 1.79 m/s, 160° - -
1777596065 8.89° C 55% 1008.8 hPa 0 mm 1.79 m/s, 122° - -
1777595765 8.89° C 55% 1009.1 hPa 0 mm 1.34 m/s, 155° - -
1777595466 8.89° C 55% 1009.1 hPa 0 mm 0.45 m/s, 198° - -
1777595166 8.89° C 55% 1009 hPa 0 mm 1.34 m/s, 218° - -
1777594864 8.89° C 55% 1009.1 hPa 0 mm 1.79 m/s, 149° - -
1777594564 8.89° C 56% 1009.3 hPa 0 mm 2.24 m/s, 226° - -
1777594265 8.89° C 56% 1009.5 hPa 0 mm 1.34 m/s, 190° - -
1777593965 8.89° C 55% 1009.2 hPa 0 mm 0.89 m/s, 136° - -
1777593666 9.44° C 53% 1009.4 hPa 0 mm 0.45 m/s, 181° - -
1777593366 9.44° C 52% 1009.3 hPa 0 mm 0.45 m/s, 149° - -
1777593064 9.44° C 52% 1009.4 hPa 0 mm 0 m/s - -
1777592764 9.44° C 52% 1009.5 hPa 0 mm 0 m/s - -
1777592465 9.44° C 51% 1009.7 hPa 0 mm 0 m/s - -
1777592165 9.44° C 52% 1009.7 hPa 0 mm 0 m/s - -
1777591866 9.44° C 52% 1009.8 hPa 0 mm 0 m/s - -
1777591566 9.44° C 51% 1009.9 hPa 0 mm 0 m/s - -
1777591264 9.44° C 51% 1009.9 hPa 0 mm 0 m/s - -
1777590964 8.89° C 52% 1009.9 hPa 0 mm 0 m/s - -

* Rain latest hour (hover to see other rain measurements)
** Current wind speed in m/s (hover to see current wind gust speed)